sat.trackr.live / text

‹ back to catalog

STARLINK-11490 [DTC]

NORAD 62219 · 2024-231B

PAYLOAD ACTIVE UNKNOWN

§ Identity

Operator
Country
US
Launch date
2024-12-05
Launch site
AFWTR
Launch vehicle
Mass (kg)
RCS (m²)

Purposes: comms

External: N2YO · Heavens-Above · Gunter

§ Orbital elements

Epoch: 2026-05-25T02:41:54.104928Z

Period
91.73 min
Inclination
53.1570°
Eccentricity
0.0001097
Mean motion
15.69740131 rev/d
Perigee alt
358.9 km
Apogee alt
360.4 km
Semi-major
6,737.8 km
B*
1.5794e-3
RAAN
84.5987°
Arg perigee
93.7591°
Mean anomaly
266.3552°
Rev number
8,541

§ Raw data

STARLINK-11490 [DTC]1 62219U 24231B   26145.11243177  .00195570  00000+0  15794-2 0  99902 62219  53.1570  84.5987 0001097  93.7591 266.3552 15.69740131 85419

JSON: /api/v1/satellites/62219 · /tle

For live sub-satellite position, see the globe view (requires WebGL).

§ Visibility from observer

Set your observer location to see the next 7 days of passes ≥ 10°. The values pass through the URL so the page stays shareable.

No JS? Fill the form by hand. The geolocation button needs JavaScript.